Location: Moscow
(55.7500°N, 37.5830°E)
Time: 23:01:51
(UTC+03:00)

COSMOS 2251 DEB - Pass Details

Date: 09 July 2022
Orbit: 738 x 847 km, 74.1° (Epoch: 17 August)

Event Time Altitude Azimuth Distance (km) Brightness Sun altitude
Rises 23:47:15 0° 322° (NW) 3,258 ? -11.3°
Reaches altitude 10° 23:51:29 10° 354° (N) 2,303 ? -11.4°
Maximum altitude 23:53:18 12° 15° (NNE) 2,178 ? -11.5°
Drops below altitude 10° 23:55:06 10° 35° (NE) 2,284 ? -11.5°
Sets 23:59:14 0° 68° (ENE) 3,190 ? -11.6°
